Location: Le Castellard
(44.1862°N, 6.1301°E)
Time: 19:42:46
(UTC+00:00)

Abrixas rocket - Pass Details

Date: 18 January 2020
Orbit: 353 x 361 km, 48.4° (Epoch: 16 February)

Event Time Altitude Azimuth Distance (km) Brightness Sun altitude
Exits shadow 05:07:13 29° 33° (NNE) 709 3.6 -21.0°
Drops below altitude 10° 05:09:13 10° 66° (ENE) 1,350 5.6 -20.6°
Sets 05:11:22 0° 76° (ENE) 2,199 7.1 -20.2°
